User: anonymous   Login
Location: Caltech
(34.1382°N, 118.1253°W)
Time: 13:47:22
(UTC-08:00)
Language:

Cosmos 1484 Rocket - Orbit

View from above orbital plane
View from above orbital plane
View from above satellite
View from above satellite

Ground track
Ground track

The orbit data is extracted from the following two-line orbital elements,

1 14208U 83075B   16037.59300241  .00001367  00000-0  87150-4 0  9991
2 14208  97.3651  62.1613 0041317  45.2008 315.2568 15.09663039772561
Epoch (UTC): 06 February 2016 14:13:55
Eccentricity: 0.0041317
inclination: 97.3651°
perigee height: 508 km
apogee height: 566 km
right ascension of ascending node: 62.1613°
argument of perigee: 45.2008°
revolutions per day: 15.09663039
mean anomaly at epoch: 315.2568°
orbit number at epoch: 77256

The dashed part of the orbit path shows where the satellite is in the earth's shadow,  

DLR